Погода в Мугалжаре

Погода в Мугалжаре : погода сейчас, прогноз погоды и архив. Всё, что Вы хотите узнать о погоде в Мугалжаре!

Хотите узнать прогноз погоды в Мугалжаре? Тогда Вам сюда: Погода в Мугалжаре

Поиск расширенной информации на нашем сайте:

Другие новости

Новости СМИ2

Главная страница сайта

Новости сайта

03.07.2017

Напоминаем, что на нашем специализированном сайте Метеоцентр.Азия вы можете получить высокодетализированные автоматические прогнозы погоды по пунктам России, СНГ и мира в авиационном формате (включающие направление и скорость ветра, видимость, явления погоды, количество и форму облачности, нижнюю и верхнюю границу облачности).

Рекомендуем: отзывы кровмаркет

Погода в Мугалжаре - сегодня

Время (UTC), дата Ветер
(°,м/с) 
Видим.   Явления Облачность Т
(°С)
Тd
(°С)
f(%) Тe
(°С)
Pmin
(гПа)
dP
(гПа)
Po
(мм)
O2
(г/м3)
Тmin Tmax R s Состояние
почвы
18 14.10.17 тихо ()   20000 м    ясно 
+7.2 -2.2 51 +7  1017.9  0.2  727  286    +15.4       
21 14.10.17 тихо ()   20000 м    ясно 
+3.6 -4.5 55 +4  1019  0.6  728  290           
00 15.10.17 тихо ()   20000 м    ясно 
+3 -3.8 61 +3  1019.4  0.2  728  291           
03 15.10.17 тихо ()   20000 м    ясно 
+6 -1.9 57 +6  1017.6  -1.2  750  296           
06 15.10.17 тихо ()   20000 м    9/0 средняя, верхняя 
[Ac trans|Ci fib]
+11.9 +2.5 53 +12  1016.4  -0.2  727  280  +2.6         
09 15.10.17 200 (Ю) 20000 м    9/9 1000 м 
[Cu med, cong]
+14.4 +4.1 50 +15  1014.8  -1.2  726  277           
12 15.10.17 200 (Ю) 20000 м    9/9 600 м кучево-дожд. 
[Cb cap]
+14.5 +4.6 51 +16  1012.6  -1.9  725  276           
15 15.10.17 160 (Ю) 20000 м    ясно 
+11.6 +2.3 53 +13  1012.1  -1  724  279    +14.8       
18 15.10.17 090 (В) 20000 м    ясно 
+11.3 +2.5 55 +11  1009.9  -2.2  722  279    +14.8       
21 15.10.17 110 (В) 20000 м    9/0 средняя 
[Ac trans]
+9.9 +2.1 58 +8  1007.4  -2.5  720  280           
00 16.10.17 110 (В) 20000 м    ясно 
+7.4 +0.9 63 +5  1007  -1  720  282           
03 16.10.17 130 (ЮВ) 10 км  слаб. ливневой дождь  10/10 600 м кучево-дожд. 
[Cb cap]
+6.4 +3.3 81 +5  1005.6  -1.4  719  282      0.4     
06 16.10.17 140 (ЮВ) 20000 м  {ливн. осадки}  10/10 600 м кучево-дожд. 
[Cb cap]
+7.2 +4 80 +6  1005.3  -0.2  718  281  +0.6    0.4     
09 16.10.17 140 (ЮВ) 20000 м    10/10 600 м кучево-дожд. 
[Cb cap]
+9 +3.8 70 +9  1005.2  0.3  719  280           
12 16.10.17 140 (ЮВ) 20000 м    9/0 средняя 
[Ac trans]
+10.2 +2.7 60 +10  1004.8  -0.2  719  279           
15 16.10.17 тихо ()   20000 м    9/9 600 м кучево-дожд. 
[Cb cap]
+9.4 +2.3 61 +9  1005.6  0.6  719  280    +10.7  0.3     
18 16.10.17 160 (Ю) 20000 м    9/9 600 м кучево-дожд. 
[Cb cap]
+8.8 +3.4 69 +8  1005.3  -0.3  719  280    +10.7  0.3     
21 16.10.17 160 (Ю) 20000 м    10/10 600 м кучево-дожд. 
[Cb cap]
+7.4 +3.2 75 +7  1004.9  -0.8  718  281           
00 17.10.17 тихо ()   10 км  слаб. ливневой дождь  10/10 600 м кучево-дожд. 
[Cb cap]
+7 +4.5 84 +7  1005  0.1  718  281           
03 17.10.17 тихо ()   10 км  ливневой дождь  10/10 600 м кучево-дожд. 
[Cb cap]
+6.2 +5.3 94 +6  1005.6  0.5  719  282         
06 17.10.17 230 (ЮЗ) 20000 м  в посл. час ливневой дождь  10/10 600 м кучево-дожд. 
[Cb cap]
+6.8 +5.2 90 +8  1006  0.5  719  282  +5.7       
09 17.10.17 230 (ЮЗ) 20000 м    10/10 600 м кучево-дожд. 
[Cb cap]
+7.4 +4.6 82 +7  1006.1  0.1  719  281           
12 17.10.17 250 (З) 20000 м    9/9 600 м кучево-дожд. 
[Cb cap]
+8.7 +4.6 75 +10  1005.3  -0.4  719  280           
15 17.10.17 290 (З) 20000 м    6/0 средняя 
[Ac trans]
+6 +2.6 79 +7  1006.9  719  283    +9.1  0.9     
18 17.10.17 тихо ()   20000 м    6/0 средняя 
[Ac trans]
+4.2 +1.1 80 +4  1006.6  -0.4  719  285    +9.1  0.9     
Время (UTC), дата Ветер
(°,м/с) 
Видим.   Явления Облачность Т
(°С)
Тd
(°С)
f(%) Тe
(°С)
Pmin
(гПа)
dP
(гПа)
Po
(мм)
O2
(г/м3)
Тmin Tmax R s Состояние
почвы

Для получения пояснительной информации подведите курсор к названию столбца.

ПОГОДА в Мугалжаре - архив

Всё, что Вы хотите узнать о погоде в Мугалжаре - удобно и подробно!

Выберите нужную дату (начиная с 1 января 2015* года) и нажмите кнопку "Найти".
Будут отображены архивные сводки погоды по пункту Мугалжар, начиная с указанной даты.


Отображать данные в формате CSV (для использования в таблицах Excel)


Внимание! Наш архив погоды предназначен исключительно для личного некоммерческого использования в познавательных целях. Если Вам необходимы официальные справки о состоянии погоды (для производственных, юридических, коммерческих и т.п. целей), обращайтесь в органы Росгидромета.

*Примечание: данная дата относится к архиву по метеостанциям СССР (Россия, СНГ, Балтия).
Архив по метеостанциям Зарубежной Европы и Азии (кроме Китая) хранится 10 дней, по другим регионам земного шара (Китай, Африка, Америка, Австралия, Океания) - 1 день.

Мугалжар - район местоположения метеостанции


Название, широта, долгота, высота метеостанции:
Мугалжар (Мугоджарская) 48.6°ш. 58.5°д. 398 м над ур. моря [Казахстан]

Дополнительная информация

В oтличие oт бoльшинства пoгoдных сайтoв мы публикуем пoдрoбную метеoинфoрмацию в детальнoм прoфессиoнальнoм фoрмате.

Характеристики температуры и влажнoсти вoздуха измеряются на высoте 2 м в тени вдали oт зданий и деревьев.
Скoрoсть ветра измеряется на высoте 10 м (на урoвне рoста челoвека скoрoсть ветра ниже в 1.5-2 раза). Если метеoстанция нахoдится в гoрoде или в лесу, тo скoрoсть ветра занижена на 2-4 м/с пo сравнению с oткрытым местoм. Скoрoсть ветра над акватoриями крупных рек и oзёр, а также на вершинах хoлмoв на 2-5 м/с выше, чем в oбычных услoвиях.
Атмoсфернoе давление в разных тoчках местнoсти мoжет значительнo oтличаться oт давления на метеoстанции, в зависимoсти oт услoвий рельефа (при пoдъёме на 10 м давление пoнижается примернo на 1 мм рт.ст.).